星链-30120 (STARLINK-30120 )

导读

STARLINK-30120是美国太空探索技术公司星链星座组网卫星,于2023年6月4日发射入轨,归属美国。星链系统旨在构建全球卫星互联网,为偏远地区、海洋、航空等场景提供宽带通信服务,该卫星补充完善了低轨星座规模,助力提升星座覆盖范围与服务容量。

基本信息
目录编号:
56824
目录名称:
STARLINK-30120
国际标识:
2023-079B
轨道中心:
EARTH
卫星名称:
星链-30120
卫星全名:
星链-30120 (STARLINK-30120 )
卫星状态:
在轨 (已飞行1188 天)
发射日期:
2023-06-04 UTC
国别 :
美国 (US)
星等 :
--
轨道信息
数据来源 国际轨道数据 AOE轨道数据
星历时间 2026-09-04T06:25:52+0800
12小时前
查看轨道信息
2026-09-03T23:00:00+0800
20小时前
查看轨道信息
半长轴 6861.193km 6861.183km
偏心率 0.0000735 0.0000024
轨道倾角 43.002° 43.001°
近地点辐角 282.185° 12.150°
升交点赤经 180.843° 182.596°
平近点角 77.892° 83.201°
近地点 482.551km 483.029km
远地点 483.561km 483.063km
周期 94.267分钟 94.267分钟
每日圈数 15.275779 15.275813
详细信息
固有亮度:
5
最大亮度:
0.5
卫星平台:
Starlink v2.0 mini
覆盖范围:
全球
运营商:
太空探索技术公司
运营商所在国:
美国
制造商(研发单位):
太空探索技术公司
制造商所在国:
美国
使用方式:
暂无
卫星简介
星链(Starlink)计划是由太空探索技术公司(SpaceX)提出的一个巨型低轨卫星互联网星座项目,计划在2019年至2024年间在太空搭建由约1.2万颗卫星组成的“星链”网络,其中1584颗将部署在地球上空550千米处的近地轨道,并从2020年开始工作。该卫星仍在工作。
2D轨道图
3D轨道图
轨道高度分析图
轨道倾角分析图
轨道综合分析图
查看轨道综合分析图